Location: Castiglione Fibocchi
(43.5333°N, 11.7667°E)
Time: 18:19:06
(UTC+00:00)

GEOS 3 Rocket - Pass Details

Date: 15 August 2020
Orbit: 770 x 849 km, 115.0° (Epoch: 17 September)

Event Time Altitude Azimuth Distance (km) Brightness Sun altitude
Rises 00:40:03 0° 40° (NE) 3,418 7.9 -29.5°
Reaches altitude 10° 00:42:26 10° 44° (NE) 2,480 6.9 -29.3°
Enters shadow 00:47:19 56° 102° (ESE) 1,005 4.0 -29.0°
